Location: Gleizolles
(44.4833°N, 6.7667°E)
Time: 21:27:55
(UTC+00:00)

Tiros 1 despin weight - Pass Details

Date: 27 June 2024
Orbit: 576 x 620 km, 48.2° (Epoch: 19 July)

Event Time Altitude Azimuth Distance (km) Brightness Sun altitude
Rises 10:25:28 0° 243° (WSW) 2,871 ? 64.3°
Reaches altitude 10° 10:27:45 10° 242° (WSW) 1,973 ? 64.6°
Maximum altitude 10:32:18 81° 157° (SSE) 631 ? 65.1°
Drops below altitude 10° 10:36:54 10° 69° (ENE) 1,990 ? 65.6°
Sets 10:39:13 0° 69° (ENE) 2,897 ? 65.8°
